Tracking 25620 objects as of 18-May-2022
HD Live streaming from Space Station
objects crossing your sky now

COSMOS 2251 DEB

Track COSMOS 2251 DEB now!
10-day predictions


NORAD ID: 34458
Int'l Code: 1993-036TB
Perigee: 710.4 km
Apogee: 732.8 km
Inclination: 74.0 °
Period: 99.1 minutes
Semi major axis: 7092 km
RCS: 0.0199 m2 (small)
Launch date: June 16, 1993
Source: Commonwealth of Independent States (former USSR) (CIS)
Launch site: PLESETSK MISSILE AND SPACE COMPLEX (PKMTR)

Note: This is SATELLITE DEBRIS
aabbcc
Your satellite tracking list
Your tracking list is empty




NASA's NSSDC Master Catalog

Two Line Element Set (TLE):
1 34458U 93036TB  22138.09021142  .00008423  00000-0  20238-2 0  9994
2 34458  74.0305  21.5907 0015804  53.0794  69.6392 14.53423556697314
Source of the keplerian elements: AFSPC